Current Weather Conditions: station 42395

sailwx.info

Wind from 070 at 11 knots gusting 17

Wave height 0.9 meters (2 feet), 6 second period

Air temperature 17.7° C

Last reported at 2018-Dec-12 01:40 UTC.
Time now 2018-Dec-12 02:53 UTC

Location: N 26°24' W 090°48'.
View on Google Maps.

See reports from other nearby stations

  
Tides and Currents Weather Stations Pressure Air Temp Water Temp Dewpoint Dewpoint Depression Visibility Wind Speed Wind Dir Waves Ship Positions
date/time (UTC)wind fromknots sea level pressurealtimeterstation pressurevisibilityair tempwater tempwave heightnotes
2018-Dec-12 01:40 070 11 gusting 17 17.7 0.9
2018-Dec-12 01:20 070 11 gusting 17 17.9 1.0
2018-Dec-12 01:00 060 9 gusting 15 17.7 1.0
2018-Dec-12 00:40 060 11 gusting 19 17.7 1.0
2018-Dec-12 00:20 040 11 gusting 15 17.5 1.1
2018-Dec-12 00:00 040 9 gusting 15 17.5 1.1
2018-Dec-11 23:40 050 9 gusting 15 17.6 1.0
2018-Dec-11 23:20 030 11 gusting 21 17.6 1.0
2018-Dec-11 23:00 030 11 gusting 19 17.5 1.0
2018-Dec-11 22:40 050 11 gusting 17 17.7 1.0
2018-Dec-11 22:20 040 11 gusting 17 17.7 1.1
2018-Dec-11 22:00 020 11 gusting 17 17.8 1.1
2018-Dec-11 21:40 030 11 gusting 19 17.7 1.0
2018-Dec-11 21:20 020 11 gusting 17 17.8 1.1
2018-Dec-11 21:00 050 9 gusting 17 17.5 1.1
2018-Dec-11 20:40 040 9 gusting 17 17.5 1.1
2018-Dec-11 20:20 030 13 gusting 19 17.7 1.1
2018-Dec-11 20:00 030 11 gusting 17 17.2 1.1
2018-Dec-11 19:40 020 13 gusting 17 17.4 1.2
2018-Dec-11 19:20 030 11 gusting 19 17.4 1.2
2018-Dec-11 19:00 030 11 gusting 17 17.2 1.2
2018-Dec-11 18:40 030 11 gusting 17 17.3 1.3
2018-Dec-11 18:20 010 11 gusting 21 17.1 1.3
2018-Dec-11 18:00 020 11 gusting 17 17.1 1.3
2018-Dec-11 17:40 020 13 gusting 19 17.0 1.3
2018-Dec-11 17:20 020 13 gusting 19 16.8 1.3
2018-Dec-11 17:00 020 13 gusting 21 17.2 1.3
2018-Dec-11 16:40 010 13 gusting 21 16.7 1.4
2018-Dec-11 16:20 010 13 gusting 21 16.8 1.3
2018-Dec-11 16:00 010 15 gusting 23 17.0 1.3
2018-Dec-11 15:40 010 15 gusting 21 16.8 1.3
2018-Dec-11 15:20 010 15 gusting 25 16.9 1.3
2018-Dec-11 15:00 010 17 gusting 23 16.7 1.3
2018-Dec-11 14:40 010 17 gusting 23 16.9 1.5
2018-Dec-11 14:20 360 17 gusting 23 16.7 1.5
2018-Dec-11 14:00 360 15 gusting 23 16.6 1.5
2018-Dec-11 13:40 360 17 gusting 25 16.5 1.6
2018-Dec-11 13:20 350 17 gusting 23 16.8 1.5
2018-Dec-11 13:00 360 17 gusting 23 16.3 1.5
2018-Dec-11 12:40 360 17 gusting 23 16.3 1.6
2018-Dec-11 12:20 360 17 gusting 25 16.7 1.6
2018-Dec-11 12:00 360 19 gusting 25 16.5 1.6
2018-Dec-11 11:40 350 19 gusting 27 16.6 1.7
2018-Dec-11 11:20 350 19 gusting 29 16.8 1.6
2018-Dec-11 11:00 360 19 gusting 27 16.9 1.6
2018-Dec-11 10:40 350 21 gusting 27 16.7 1.6
2018-Dec-11 10:20 350 21 gusting 27 16.8 1.7
2018-Dec-11 10:00 350 23 gusting 31 16.9 1.7
2018-Dec-11 09:40 350 23 gusting 29 16.9 1.8
2018-Dec-11 09:20 340 23 gusting 31 16.9 1.8
2018-Dec-11 09:00 350 23 gusting 31 17.1 1.8
2018-Dec-11 08:40 350 23 gusting 31 17.0 1.7
2018-Dec-11 08:00 340 25 gusting 31 17.5 1.9
2018-Dec-11 07:40 340 25 gusting 31 17.7 1.9
2018-Dec-11 07:20 330 23 gusting 31 17.6 1.8
2018-Dec-11 07:00 330 23 gusting 31 17.9 1.8
2018-Dec-11 06:40 330 25 gusting 31 17.7 1.8
2018-Dec-11 06:20 330 23 gusting 29 18.0 1.8
2018-Dec-11 06:00 330 23 gusting 31 18.1 1.8
2018-Dec-11 05:40 330 23 gusting 29 18.0 1.8
2018-Dec-11 05:20 330 21 gusting 29 18.2 1.6
2018-Dec-11 05:00 320 21 gusting 27 18.4 1.6
2018-Dec-11 04:40 320 21 gusting 29 18.2 1.7
2018-Dec-11 04:20 320 21 gusting 29 18.3 1.5
2018-Dec-11 04:00 320 21 gusting 29 18.4 1.5
2018-Dec-11 03:40 320 21 gusting 31 18.3 1.6
2018-Dec-11 03:20 320 21 gusting 29 18.3 1.7
2018-Dec-11 03:00 320 21 gusting 29 18.4 1.7
2018-Dec-11 02:40 320 21 gusting 29 18.6 1.6
2018-Dec-11 02:20 320 21 gusting 27 18.6 1.5
2018-Dec-11 02:00 320 21 gusting 34 18.9 1.5
2018-Dec-11 01:40 320 21 gusting 29 18.7 1.5
2018-Dec-11 01:20 320 21 gusting 27 18.5 1.7
2018-Dec-11 01:00 320 21 gusting 29 18.7 1.7
2018-Dec-11 00:40 330 19 gusting 29 18.6 1.5
2018-Dec-11 00:20 320 19 gusting 27 18.8 1.6
2018-Dec-11 00:00 320 19 gusting 27 18.8 1.6
2018-Dec-10 23:40 330 21 gusting 27 18.8 1.6
2018-Dec-10 23:20 330 19 gusting 27 18.4 1.7
2018-Dec-10 23:00 330 21 gusting 27 18.4 1.7
2018-Dec-10 22:40 330 17 gusting 27 18.4 1.8
2018-Dec-10 22:20 320 19 gusting 25 18.3 1.6
2018-Dec-10 22:00 330 19 gusting 27 18.3 1.6
2018-Dec-10 21:40 330 17 gusting 25 18.0 1.7
2018-Dec-10 21:20 330 17 gusting 23 17.7 1.5
2018-Dec-10 21:00 330 19 gusting 25 17.9 1.5
2018-Dec-10 20:40 330 19 gusting 25 17.9 1.5
2018-Dec-10 20:20 330 19 gusting 25 17.8 1.7
2018-Dec-10 20:00 330 19 gusting 25 17.7 1.7
2018-Dec-10 19:40 330 17 gusting 25 17.5 1.7
2018-Dec-10 19:20 330 15 gusting 21 17.0 1.6
2018-Dec-10 19:00 330 17 gusting 21 16.9 1.6
2018-Dec-10 18:40 340 19 gusting 25 17.1 1.7
2018-Dec-10 18:20 340 17 gusting 25 16.9 1.7
2018-Dec-10 18:00 350 17 gusting 25 16.5 1.7
2018-Dec-10 17:40 340 17 gusting 25 17.0 1.8
2018-Dec-10 17:20 330 17 gusting 27 17.0 1.9
2018-Dec-10 16:40 340 19 gusting 25 16.7 1.6
2018-Dec-10 16:20 340 19 gusting 27 16.5 1.6
2018-Dec-10 16:00 340 21 gusting 29 16.5 1.6
2018-Dec-10 15:40 340 19 gusting 27 16.5 1.7
2018-Dec-10 15:20 330 19 gusting 29 16.3 1.8
2018-Dec-10 15:00 340 21 gusting 29 16.8 1.8
2018-Dec-10 14:40 320 21 gusting 31 16.7 1.8
2018-Dec-10 14:20 330 23 gusting 29 16.7 1.8
2018-Dec-10 14:00 340 21 gusting 29 16.4 1.8
2018-Dec-10 13:40 350 21 gusting 29 16.5 1.8
2018-Dec-10 13:20 330 19 gusting 25 16.7 1.8
2018-Dec-10 13:00 340 21 gusting 29 16.4 1.8
2018-Dec-10 12:40 330 21 gusting 29 16.2 1.9
2018-Dec-10 12:20 340 21 gusting 31 16.3 1.9
2018-Dec-10 12:00 340 23 gusting 31 16.8 1.9
2018-Dec-10 11:40 330 25 gusting 31 17.0 1.9
2018-Dec-10 11:20 330 25 gusting 34 16.7 1.8
2018-Dec-10 11:00 330 25 gusting 33 17.4 1.8
2018-Dec-10 10:40 340 23 gusting 31 16.8 1.9
2018-Dec-10 10:20 330 21 gusting 29 17.2 2.0
2018-Dec-10 10:00 330 21 gusting 27 17.0 2.0
2018-Dec-10 09:40 330 19 gusting 27 16.9 2.0
2018-Dec-10 09:20 320 19 gusting 29 17.1 2.1
2018-Dec-10 09:00 320 19 gusting 27 17.0 2.1
2018-Dec-10 08:40 320 21 gusting 31 16.5 2.1
2018-Dec-10 08:20 320 21 gusting 34 16.6 2.0
2018-Dec-10 08:00 320 23 gusting 29 17.0 2.0
2018-Dec-10 07:40 320 21 gusting 29 17.1 2.0
2018-Dec-10 07:20 320 21 gusting 29 16.9 2.1
2018-Dec-10 07:00 320 19 gusting 29 16.8 2.1
2018-Dec-10 06:40 320 21 gusting 29 17.1 2.1
2018-Dec-10 06:20 330 21 gusting 31 17.1 2.4
2018-Dec-10 06:00 320 21 gusting 27 17.2 2.4
2018-Dec-10 05:40 310 19 gusting 25 17.4 2.4
2018-Dec-10 05:20 320 19 gusting 29 17.2 2.3
2018-Dec-10 05:00 310 21 gusting 29 17.4 2.3
2018-Dec-10 04:40 310 21 gusting 31 17.5 2.5
2018-Dec-10 04:20 320 21 gusting 29 17.2 2.6
2018-Dec-10 04:00 310 19 gusting 29 17.8 2.6
2018-Dec-10 03:40 310 21 gusting 31 17.6 2.7
2018-Dec-10 03:20 310 19 gusting 27 17.5 2.5
2018-Dec-10 03:00 310 23 gusting 31 17.9 2.5
2018-Dec-10 02:40 320 21 gusting 33 17.4 2.7
2018-Dec-10 02:20 320 23 gusting 31 17.7 2.6
2018-Dec-10 02:00 330 21 gusting 33 17.7 2.6